This demonstration page uses our WeatherBlox Daily Observations layout. Learn more.

Left ArrowRight Arrow

Hourly Observations for May 19, 2017

Temp ( °F °C ) Dew Point ( °F °C ) Humidity (%) Winds ( mph kmh ) Pressure ( in mb ) Visibility ( mi km ) Precip ( " mm )
12:17 am 00:17 Cloudy with Rain 54 12 50 10 88 88 NE 13 20 29.96 1015 8 13 0.00 0.00
12:25 am 00:25 Cloudy 54 12 50 10 88 88 NE 14 22 29.96 1015 9 14 0.00 0.00
12:42 am 00:42 Cloudy with Light Rain 54 12 50 10 88 88 NE 16 26 29.95 1014 10 16 0.00 0.00
12:52 am 00:52 Cloudy 54 12 50 10 88 88 NE 14 22 29.94 1014 10 16 0.00 0.00
12:56 am 00:56 Cloudy 53 11.5 50 10.1 91 91 NE 13 20 29.94 1014 10 16 0.09 2.29
1:22 am 01:22 Cloudy with Light Rain 54 12 50 10 88 88 NE 13 20 29.94 1014 10 16 0.00 0.00
1:56 am 01:56 Cloudy with Light Rain 53 11.4 50 9.8 90 90 NE 14 22 29.93 1014 10 16 0.02 0.51
2:05 am 02:05 Cloudy 52 11 50 10 94 94 NE 14 22 29.92 1013 10 16 0.00 0.00
2:09 am 02:09 Cloudy with Light Rain 52 11 50 10 94 94 NE 12 19 29.93 1014 10 16 0.00 0.00
2:29 am 02:29 Cloudy with Light Rain 52 11 50 10 94 94 NE 12 19 29.93 1014 10 16 0.00 0.00
2:56 am 02:56 Cloudy with Light Rain 53 11.4 50 9.8 90 90 NE 9 15 29.92 1013 10 16 0.01 0.25
2:58 am 02:58 Cloudy 52 11 50 10 94 94 ENE 14 22 29.92 1013 10 16 0.00 0.00
3:36 am 03:36 Cloudy with Light Rain 52 11 50 10 94 94 ENE 10 17 29.93 1014 10 16 0.00 0.00
3:47 am 03:47 Mostly Cloudy 52 11 50 10 94 94 ENE 10 17 29.92 1013 10 16 0.00 0.00
3:56 am 03:56 Mostly Cloudy 53 11.4 49 9.5 88 88 ENE 10 17 29.91 1013 10 16 0.00 0.03
4:56 am 04:56 Cloudy 53 11.4 49 9.5 88 88 NE 7 11 29.93 1014 10 16 0.00 0.00
5:07 am 05:07 Cloudy with Light Rain 52 11 50 10 94 94 ENE 10 17 29.92 1013 10 16 0.00 0.00
5:17 am 05:17 Cloudy 52 11 48 9 88 88 NE 10 17 29.93 1014 10 16 0.00 0.00
5:56 am 05:56 Cloudy 52 11.3 49 9.4 88 88 ENE 9 15 29.94 1014 10 16 0.00 0.03
6:56 am 06:56 Cloudy 52 11.3 49 9.4 88 88 NE 7 11 29.96 1015 10 16 0.00 0.00
7:31 am 07:31 Cloudy with Drizzle 52 11 48 9 88 88 NE 8 13 29.97 1015 8 13 0.00 0.00
7:41 am 07:41 Cloudy with Light Rain 52 11 50 10 94 94 NE 7 11 29.97 1015 4 6 0.00 0.00
7:56 am 07:56 Mostly Cloudy with Light Rain 52 11 50 9.9 93 93 NE 7 11 29.98 1015 3 4 0.00 0.03
8:06 am 08:06 Partly Cloudy with Light Rain 52 11 50 10 94 94 NE 7 11 29.98 1015 3 4 0.00 0.00
8:12 am 08:12 Partly Cloudy with Light Rain 52 11 50 10 94 94 N 3 6 29.98 1015 3 5 0.00 0.00
8:16 am 08:16 Partly Cloudy with Mist and Fog 52 11 50 10 94 94 N 6 9 29.98 1015 4 6 0.00 0.00
8:26 am 08:26 Mostly Cloudy with Mist and Fog 52 11 50 10 94 94 Calm 29.98 1015 4 6 0.00 0.00
8:56 am 08:56 Cloudy with Mist and Fog 52 11 50 10.1 94 94 NNE 5 7 29.99 1016 4 6 0.00 0.03
9:06 am 09:06 Cloudy with Mist and Fog 52 11 50 10 94 94 NNE 6 9 29.99 1016 4 6 0.00 0.00
9:17 am 09:17 Cloudy with Mist and Fog 52 11 50 10 94 94 NNE 7 11 30.01 1016 3 4 0.00 0.00
9:19 am 09:19 Cloudy with Light Rain 52 11 50 10 94 94 N 7 11 30.01 1016 3 4 0.00 0.00
9:29 am 09:29 Cloudy with Mist and Fog 52 11 50 10 94 94 N 7 11 30.01 1016 3 5 0.00 0.00
9:49 am 09:49 Cloudy with Light Rain 52 11 52 11 100 100 N 5 7 30.01 1016 5 8 0.00 0.00
9:56 am 09:56 Cloudy with Light Rain 52 11.3 51 10.4 94 94 N 7 11 30.01 1016 5 8 0.01 0.25
10:04 am 10:04 Cloudy with Mist and Fog 52 11 52 11 100 100 N 8 13 30.01 1016 5 8 0.00 0.00
10:14 am 10:14 Cloudy with Mist and Fog 54 12 52 11 94 94 N 7 11 30.01 1016 4 6 0.00 0.00
10:25 am 10:25 Cloudy with Light Rain 54 12 52 11 94 94 NNE 5 7 30.01 1016 5 8 0.00 0.00
10:35 am 10:35 Cloudy with Mist and Fog 54 12 52 11 94 94 N 6 9 30.01 1016 5 8 0.00 0.00
10:56 am 10:56 Cloudy with Mist and Fog 53 11.8 52 10.9 94 94 NNE 5 7 30.01 1016 6 10 0.00 0.03
11:01 am 11:01 Cloudy with Light Rain 54 12 52 11 94 94 NNE 7 11 30.00 1016 4 6 0.00 0.00
11:04 am 11:04 Cloudy with Mist and Fog 54 12 52 11 94 94 N 7 11 30.00 1016 4 6 0.00 0.00
11:05 am 11:05 Cloudy with Light Rain 54 12 52 11 94 94 NNE 8 13 30.00 1016 4 6 0.00 0.00
11:16 am 11:16 Cloudy with Mist and Fog 54 12 52 11 94 94 N 8 13 30.01 1016 6 10 0.00 0.00
11:56 am 11:56 Cloudy 54 12.2 52 10.9 92 92 NNE 7 11 N/A 9 14 0.00 0.03
12:56 pm 12:56 Cloudy 56 13.1 51 10.6 85 85 NNE 10 17 30.02 1017 10 16 0.00 0.00
1:41 pm 13:41 Cloudy with Light Rain 55 13 52 11 88 88 NE 8 13 N/A 9 14 0.00 0.00
1:53 pm 13:53 Cloudy 55 13 52 11 88 88 NNE 10 17 N/A 7 11 0.00 0.00
1:56 pm 13:56 Cloudy 55 12.8 52 11.2 90 90 NNE 9 15 30.01 1016 7 11 0.00 0.03
2:14 pm 14:14 Cloudy with Mist and Fog 55 13 52 11 88 88 NNE 8 13 N/A 5 8 0.00 0.00
2:56 pm 14:56 Cloudy 55 13 52 11.1 88 88 NNE 12 19 30.01 1016 10 16 0.00 0.00
3:43 pm 15:43 Cloudy with Mist and Fog 54 12 52 11 94 94 NE 10 17 29.97 1015 5 8 0.00 0.00
3:56 pm 15:56 Cloudy with Mist and Fog 54 12.1 52 11 93 93 NE 12 19 30.00 1016 3 5 0.00 0.00
4:01 pm 16:01 Cloudy with Light Rain 54 12 52 11 94 94 NE 12 19 30.00 1016 2 4 0.00 0.00
4:38 pm 16:38 Cloudy with Mist and Fog 54 12 52 11 94 94 NE 12 19 N/A 5 8 0.00 0.00
4:56 pm 16:56 Cloudy 53 11.7 51 10.6 93 93 NE 13 20 30.00 1016 9 14 0.00 0.03
5:26 pm 17:26 Cloudy with Light Rain 52 11 50 10 94 94 NE 12 19 30.03 1017 8 13 0.00 0.00
5:56 pm 17:56 Cloudy with Light Rain 52 11.3 50 10 92 92 NE 12 19 30.03 1017 9 14 0.02 0.51
8:17 pm 20:17 Mostly Cloudy with Rain 50 10 48 9 94 94 NE 14 22 29.96 1015 6 10 0.00 0.00
8:59 pm 20:59 Mostly Cloudy with Light Rain 50 10 48 9 94 94 NE 14 22 29.96 1015 7 11 0.00 0.00
10:56 pm 22:56 Partly Cloudy with Rain 49 9.4 47 8.3 93 93 NE 10 17 29.97 1015 4 6 0.12 3.05
11:16 pm 23:16 Mostly Clear with Rain 48 9 46 8 94 94 NE 14 22 29.95 1014 8 13 0.00 0.00
11:22 pm 23:22 Clear 48 9 46 8 94 94 NE 13 20 29.95 1014 8 13 0.00 0.00
11:25 pm 23:25 Mostly Clear with Rain 48 9 46 8 94 94 NNE 9 15 29.95 1014 8 13 0.00 0.00
11:50 pm 23:50 Partly Cloudy with Light Rain 50 10 46 8 88 88 NE 10 17 29.95 1014 10 16 0.00 0.00
11:56 pm 23:56 Partly Cloudy with Light Rain 49 9.5 47 8.3 92 92 NNE 9 15 29.95 1014 10 16 0.07 1.78

Powered by AerisWeather